Location: Cudham
(51.3000°N, 0.0667°E)
Time: 16:58:25
(UTC+00:00)

USA 229 DEB - Pass Details

Date: 21 April 2026
Orbit: 844 x 1364 km, 63.4° (Epoch: 10 January)

Event Time Altitude Azimuth Distance (km) Brightness Sun altitude
Rises 20:09:35 0° 289° (WNW) 3,697 8.3 -9.7°
Reaches altitude 10° 20:12:25 10° 300° (WNW) 2,825 7.6 -10.0°
Maximum altitude 20:18:18 31° 2° (N) 1,857 5.3 -10.8°
Drops below altitude 10° 20:24:51 10° 62° (ENE) 3,162 5.9 -11.6°
Sets 20:28:12 0° 72° (ENE) 4,207 6.5 -12.0°
